#timestamp,LO_Frequency,Hit,StdDev 
1639026015.1,286047002.7,N
1639026016.0,286047002.7,N
1639026035.8,286046999.7,N
1639026055.7,286046999.9,N
1639026075.5,286047001.8,N
1639026095.3,286047002.6,N
1639026115.2,286047002.6,N
1639026135.9,286047002.8,N
1639026155.7,286047001.7,N
1639026175.6,286047003.9,N
1639026195.4,286047002.5,N
1639026215.2,286047000.1,N
1639026235.1,286047002.8,N
1639026236.0,286047002.8,N
1639026255.8,286047002.5,N
1639026275.6,286047002.2,N
1639026295.5,286047002.1,N
1639026315.3,286047002.5,N
1639026335.2,286047002.6,N
1639026355.9,286046999.8,N
1639026375.7,286047002.2,N
1639026395.6,286047002.2,N
1639026415.4,286047002.2,N
1639026435.2,286047001.6,N
1639026455.1,286047001.7,N
1639026456.0,286047001.7,N
1639026475.8,286047004.4,Y
1639026495.6,286046999.9,P
1639026515.5,286047000.0,N
1639026535.3,286046999.7,N
1639026555.2,286047001.8,N
1639026575.9,286047004.0,Y
1639026595.7,286047002.0,P
1639026615.6,286047002.1,P
1639026635.4,286047001.9,N
1639026655.2,286047003.9,Y
1639026675.1,286047000.9,P
1639026676.0,286047000.9,N
1639026695.8,286047000.8,N
1639026715.7,286047002.4,Y
1639026735.5,286047000.8,P
1639026755.3,286047001.1,P
1639026775.2,286046998.5,P
1639026795.9,286047000.8,N
1639026815.7,286047001.2,N
1639026835.6,286046999.6,N
1639026855.4,286046998.3,N
1639026875.2,286046998.5,N
1639026895.1,286047001.2,N
1639026896.0,286047001.2,N
1639026915.8,286047001.0,N
1639026935.6,286047000.8,N
1639026955.5,286046998.6,N
1639026975.3,286046998.8,N
1639026995.2,286046999.2,N
1639027015.9,286046998.7,N
1639027035.7,286046998.6,N
1639027055.6,286046999.3,N
1639027075.4,286046998.8,N
1639027095.2,286046999.5,N
1639027115.1,286047001.0,N
1639027116.0,286047001.0,N
1639027135.8,286046998.3,N
1639027155.6,286047000.7,N
1639027175.5,286047000.0,N
1639027195.3,286047000.2,N
1639027215.1,286047002.4,N
1639027235.9,286047002.5,N
1639027255.7,286046999.7,N
1639027275.6,286047001.2,N
1639027295.4,286046999.0,N
1639027315.2,286046998.3,N
1639027335.1,286046998.2,N
1639027336.0,286046998.2,N
1639027355.8,286046998.6,N
1639027375.6,286046998.7,N
1639027395.5,286047001.0,N
1639027415.3,286046999.9,N
1639027435.1,286047002.6,N
1639027455.9,286047004.3,Y
1639027475.7,286047002.3,P
1639027495.6,286046999.8,N
1639027515.4,286047000.1,N
1639027535.2,286047000.0,N
1639027555.1,286047000.4,N
1639027556.0,286047000.4,N
1639027575.8,286047000.1,N
1639027595.6,286047002.4,Y
1639027615.5,286046999.9,P
1639027635.3,286047000.2,N
1639027655.1,286047000.1,N
1639027675.9,286046999.7,N
1639027695.7,286046999.7,N
1639027715.5,286047000.0,N
1639027735.4,286046999.9,N
1639027755.2,286047000.7,Y
1639027775.1,286047001.2,P
1639027776.0,286047001.2,N
1639027795.8,286046998.5,N
1639027815.6,286046998.2,N
1639027835.5,286047001.2,N
1639027855.3,286047001.2,N
1639027875.1,286047000.6,N
1639027895.9,286046999.9,N
1639027915.7,286047000.2,N
1639027935.5,286046999.9,N
1639027955.4,286047001.2,N
1639027975.2,286046999.2,N
1639027995.0,286046998.8,N
1639027996.0,286046998.8,N
1639028015.8,286046999.5,N
1639028035.6,286046999.3,N
1639028055.5,286046998.8,N
1639028075.3,286046998.9,N
1639028095.1,286046999.6,N
1639028115.9,286047000.7,N
1639028135.7,286046998.1,N
1639028155.5,286046998.3,N
1639028175.4,286047002.3,N
1639028195.2,286047002.3,N
1639028215.0,286047000.6,N
1639028215.9,286047000.6,N
1639028235.8,286047002.0,N
1639028255.6,286047001.4,N
1639028275.5,286047000.1,N
1639028295.3,286046999.8,N
1639028315.1,286047002.7,N
1639028335.9,286047001.5,N
1639028355.7,286047000.2,N
1639028375.5,286046999.9,N
1639028395.4,286046999.7,N
1639028415.2,286047000.2,N
1639028435.0,286047002.2,N
1639028435.9,286047002.2,N
1639028455.8,286047002.5,N
1639028475.6,286046999.8,N
1639028495.4,286047002.3,N
1639028515.3,286047002.8,N
1639028535.1,286047002.8,N
1639028555.9,286046999.9,N
1639028575.7,286046999.9,N
1639028595.5,286046999.8,N
1639028615.4,286047001.6,N
1639028635.2,286047001.9,N
1639028655.0,286047002.1,N
1639028655.9,286047002.1,N
1639028675.8,286047002.0,N
1639028695.6,286047002.7,N
1639028715.4,286047002.0,N
1639028735.3,286047001.6,N
1639028755.1,286047001.9,N
1639028775.9,286047004.2,Y
1639028795.7,286047004.2,P
1639028815.5,286047001.8,N
1639028835.4,286047001.5,N
1639028855.2,286047004.3,Y
1639028875.0,286047000.7,P
1639028875.9,286047000.7,N
1639028895.8,286046998.3,N
1639028915.6,286046998.6,N
1639028935.4,286047001.1,N
1639028955.3,286047001.1,N
1639028975.1,286046998.9,N
1639028995.9,286046999.2,N
1639029015.7,286046999.2,N
1639029035.5,286046997.2,N
1639029055.4,286046997.2,N
1639029075.2,286046999.0,N
1639029095.0,286046996.8,N
1639029095.9,286046996.8,N
1639029115.8,286046997.2,N
1639029135.6,286046998.9,N
1639029155.4,286046998.9,N
1639029175.3,286046996.6,N
1639029195.1,286046997.1,N
1639029215.8,286046997.4,N
1639029235.7,286046997.8,N
1639029255.5,286046997.8,N
1639029275.4,286046997.6,N
1639029295.2,286046997.4,N
1639029315.0,286046999.5,N
1639029315.9,286046999.5,N
1639029335.8,286046999.0,N
1639029355.6,286047000.3,N
1639029375.4,286046998.7,N
1639029395.3,286046996.5,N
1639029415.1,286046999.5,N
1639029435.9,286046997.2,N
1639029455.7,286046997.4,N
1639029475.5,286046997.3,N
1639029495.4,286046996.7,N
1639029515.2,286046997.0,N
1639029535.0,286046997.1,N
1639029535.9,286046997.1,N
1639029555.8,286046997.0,N
1639029575.6,286046996.5,Y
1639029595.4,286046998.2,P
